Location: Cabo di Oristano
(39.8500°N, 8.4333°E)
Time: 17:00:25
(UTC+00:00)

SL-27 R/B - Pass Details

Date: 31 January 2023
Orbit: 398 x 434 km, 74.7° (Epoch: 01 April)

Event Time Altitude Azimuth Distance (km) Brightness Sun altitude
Exits shadow 05:21:05 12° 224° (SW) 1,401 4.6 -14.6°
Maximum altitude 05:23:55 38° 292° (WNW) 689 2.8 -14.0°
Drops below altitude 10° 05:27:10 10° 2° (N) 1,574 5.1 -13.4°
Sets 05:29:22 0° 11° (N) 2,454 6.1 -13.0°
